Regional Weather Roundup
Issued by NWS Little Rock, AR

Home | Current Version | Previous Version | Text Only | Print | Product List | Glossary Off
Versions: 1 2 3 4 5 6 7 8 9 10 11 12 13 14 15 16 17 18 19 20 21 22 23 24 25 26 27 28 29 30 31 32 33 34 35 36 37 38 39 40 41 42 43 44 45 46 47 48 49 50

000
ASUS44 KLZK 221305
RWRLZK

WEATHER ROUNDUP FOR ARKANSAS
NATIONAL WEATHER SERVICE LITTLE ROCK AR
700 AM CST SAT NOV 22 2014

NOTE: "FAIR" INDICATES FEW OR NO CLOUDS BELOW 12,000 FEET WITH NO
SIGNIFICANT WEATHER AND/OR OBSTRUCTIONS TO VISIBILITY.

ARZ001-003-010-029-221400-
NORTHWEST ARKANSAS

CITY           SKY/WX    TMP DP  RH WIND       PRES   REMARKS
FAYETTEVILLE   LGT RAIN  53  49  86 S15G21    30.09F
FORT SMITH     CLOUDY    51  48  89 NE7       30.11F
HARRISON       CLOUDY    53  48  83 S10       30.11F
BENTONVILLE    CLOUDY    54  46  76 S9        30.10R
ROGERS         LGT RAIN  54  48  80 S9        30.09S
SILOAM SPGS    CLOUDY    54  45  71 S10       30.11R
HIGHFILL       CLOUDY    54  49  83 S10       30.08S
SPRINGDALE     CLOUDY    54  48  82 S7        30.11S
$$

ARZ004-005-016-221400-
NORTH CENTRAL ARKANSAS

CITY           SKY/WX    TMP DP  RH WIND       PRES   REMARKS
BATESVILLE     CLOUDY    52  46  82 S5        30.20F
FLIPPIN        MOCLDY    45  39  81 CALM      30.13F
MTN HOME       CLOUDY    49  45  86 S6        30.13F
$$

ARZ040-041-221400-
WEST CENTRAL ARKANSAS

CITY           SKY/WX    TMP DP  RH WIND       PRES   REMARKS
MENA           CLOUDY    59  52  77 SW3       30.15R THUNDER
MOUNT IDA      CLOUDY    56  51  84 CALM      30.13F
$$

ARZ009-017-025-026-028-221400-
NORTHEAST ARKANSAS

CITY           SKY/WX    TMP DP  RH WIND       PRES   REMARKS
CORNING        PTSUNNY   41  41 100 NE3       30.22S FOG
JONESBORO      CLOUDY    50  47  89 S5        30.23S
NEWPORT        CLOUDY    50  48  92 S10       30.22S
WALNUT RIDGE   CLOUDY    43  37  81 SE5       30.20F
BLYTHEVILLE    MOCLDY    58  46  64 S8        30.25R
$$

ARZ022-023-033-042-044-221400-
CENTRAL ARKANSAS

CITY           SKY/WX    TMP DP  RH WIND       PRES   REMARKS
LITTLE ROCK    CLOUDY    50  47  89 S6        30.20F FOG
N LITTLE ROCK    N/A     53  50  90 S7        30.20F
JACKSONVILLE   CLOUDY    52  49  89 S6        30.19F
SEARCY         FOG       45  44  97 CALM      30.22S VSB 3/4
HOT SPRINGS    CLOUDY    54  49  83 VRB3      30.18F
RUSSELLVILLE   CLOUDY    51  48  89 CALM      30.16F
CLINTON        CLOUDY    46  46 100 CALM      30.21S FOG
$$

ARZ036-221400-
EAST ARKANSAS

CITY           SKY/WX    TMP DP  RH WIND       PRES   REMARKS
WEST MEMPHIS   CLOUDY    54  47  77 S12       30.25S
$$

ARZ050-053-066-070-073-221400-
SOUTHWEST ARKANSAS

CITY           SKY/WX    TMP DP  RH WIND       PRES   REMARKS
ARKADELPHIA    CLOUDY    53  53 100 SE3       30.20R
CAMDEN         LGT RAIN  54  50  87 NE7       30.20S
TEXARKANA      CLOUDY    55  51  86 SE7       30.14F
EL DORADO      LGT RAIN  54  51  90 SE8       30.19F
DE QUEEN       CLOUDY    54  53  97 NE3       30.13R
$$

ARZ056-057-069-221400-
SOUTHEAST ARKANSAS

CITY           SKY/WX    TMP DP  RH WIND       PRES   REMARKS
PINE BLUFF     MOCLDY    50  46  86 CALM      30.21S
STUTTGART      MOCLDY    50  46  87 SE8       30.22F
MONTICELLO     CLOUDY    55  48  77 S8        30.21F

$$




USA.gov is the U.S. government's official web portal to all federal, state and local government web resources and services.